Wetbulb
72.94 72.78 74.05 74.26 73.26 72.32 72.34 72.25 71.90 71.51 70.28 69.78 68.85 67.77 68.49 68.09 65.02 64.36 66.58 64.72 69.65 68.63 69.34 68.63 68.45 68.01 68.04 67.65 67.31 67.89 67.96 67.54 66.85
73.89 73.50 72.98 73.99 74.00 73.21 72.22 72.29 72.16 71.92 71.49 70.35 69.91 68.67 67.99 65.22 64.16 63.70 64.20 65.23 68.88 68.58 68.58 68.07 67.62 67.52 66.90 67.75 66.96 66.64 67.91 66.63 66.79
74.05 73.91 73.99 73.39 73.86 74.03 73.09 72.30 72.16 72.07 71.84 71.70 70.73 70.03 70.10 65.67 64.21 63.93 63.98 68.88 68.92 68.63 68.45 68.38 67.31 67.72 68.18 67.84 67.31 66.43 67.17 66.47 66.61
74.17 74.49 73.99 73.85 73.38 73.96 73.86 72.97 72.24 72.05 71.98 71.76 71.85 71.31 70.94 64.76 63.89 65.16 64.25 69.81 69.05 68.69 68.21 67.97 67.52 66.57 67.04 67.05 66.45 65.81 66.61 66.07 66.07
72.98 73.37 73.66 73.60 73.90 73.74 73.92 73.70 72.98 72.51 72.38 72.01 72.38 72.16 71.39 66.69 63.46 64.54 64.50 69.84 69.47 68.67 68.20 67.94 67.90 66.46 67.19 66.54 65.44 65.36 65.67 65.85 66.70
69.70 71.37 72.15 72.41 72.89 73.49 73.37 73.44 73.58 73.38 72.70 72.51 72.24 72.07 68.17 65.99 63.19 64.33 67.43 69.88 69.72 69.24 68.31 67.98 67.98 67.11 66.81 65.62 65.37 64.98 65.49 65.32 66.50
69.60 69.22 69.94 70.96 71.83 72.28 72.58 72.57 72.94 72.60 70.29 70.03 71.32 70.06 67.97 66.36 64.64 64.74 68.62 69.93 70.11 69.34 68.43 67.89 67.69 67.40 66.91 65.59 64.73 64.64 65.07 64.86 65.76
67.30 67.12 67.01 66.95 68.81 68.55 69.56 69.42 69.67 69.82 69.94 68.89 68.42 69.07 67.85 67.73 65.70 66.33 69.85 70.56 70.31 69.49 68.45 67.80 67.54 67.24 66.90 65.81 65.14 64.23 64.86 64.95 65.69
62.74 63.52 65.39 66.74 66.85 66.00 67.00 67.34 68.12 68.38 69.01 68.71 67.80 67.09 66.86 67.29 66.66 66.16 69.60 70.96 70.57 69.99 68.85 68.05 67.70 67.13 66.72 66.11 65.04 64.33 64.00 64.53 65.39
57.63 57.28 60.28 63.15 65.57 65.72 65.25 65.82 66.47 66.74 67.15 68.13 68.18 67.18 66.40 65.75 66.18 65.56 69.16 70.51 70.80 69.98 69.35 68.42 67.89 67.05 66.96 66.20 65.29 64.34 63.93 63.73 64.13
53.13 54.24 56.41 58.18 61.23 63.29 65.61 64.58 64.37 63.17 65.52 67.51 67.60 67.01 66.61 66.22 65.44 65.69 67.33 69.46 70.35 70.21 69.78 68.94 68.09 67.36 67.09 65.99 65.36 64.73 64.03 63.75 63.36
51.59 52.53 53.20 55.99 58.15 59.34 61.09 63.65 65.33 64.65 64.32 64.45 65.82 66.90 66.78 66.67 66.12 65.64 66.34 67.97 68.82 69.32 70.17 69.20 68.52 67.79 66.95 66.09 65.58 64.94 64.21 63.83 63.39
50.28 49.51 50.77 53.10 54.72 56.60 57.18 60.36 61.80 63.65 63.35 63.57 64.19 64.68 64.91 65.47 66.22 65.59 65.83 66.41 67.06 68.43 68.77 69.87 68.99 68.04 67.21 66.40 65.71 64.97 64.21 64.09 63.32
47.33 47.66 48.59 51.11 51.84 53.48 55.82 56.93 58.61 58.97 60.97 61.71 62.78 63.05 63.84 64.28 65.48 65.06 64.87 65.44 66.00 66.53 67.85 68.85 68.50 68.34 67.66 66.84 65.97 65.34 64.65 64.01 63.53
46.66 46.78 47.09 48.32 49.04 49.98 52.19 54.24 55.43 57.33 59.83 61.24 61.80 61.36 61.96 62.79 63.89 63.95 64.52 64.66 64.53 64.42 65.29 66.31 66.28 67.99 67.74 67.09 66.59 65.63 64.99 64.31 63.80
45.71 45.36 46.20 46.54 46.03 46.87 49.77 52.60 53.66 55.28 57.78 59.03 58.11 60.36 61.86 61.57 62.83 64.44 63.81 63.56 63.49 63.78 64.31 64.38 64.20 65.27 67.17 66.93 66.75 66.40 65.50 64.40 63.90
46.32 44.92 45.34 44.58 44.72 45.62 46.83 48.24 50.28 53.82 56.58 55.43 56.59 55.24 57.17 59.39 60.46 62.22 63.64 62.85 63.01 62.45 63.19 63.66 63.12 62.58 63.15 62.79 65.66 65.23 64.90 64.56 63.46
46.10 45.30 44.60 43.74 43.65 44.57 45.73 47.28 49.47 51.59 54.47 56.55 55.89 53.82 51.44 55.23 56.06 56.57 57.57 62.30 62.14 62.50 62.67 62.91 62.26 61.95 61.07 63.07 62.51 63.17 63.58 63.31 62.98
45.92 45.99 44.64 43.51 43.63 44.03 44.69 48.69 49.53 49.54 49.31 53.79 57.73 57.98 57.03 53.29 52.19 53.84 53.45 54.37 58.20 62.25 62.24 62.09 61.51 61.16 60.52 60.97 60.95 62.32 62.72 62.68 62.14
45.61 45.50 44.65 43.39 43.53 43.70 44.44 47.06 46.82 48.17 49.00 50.03 52.22 55.86 57.04 56.96 53.61 50.65 51.50 53.01 51.75 52.05 58.06 61.51 61.08 60.17 59.88 59.75 60.86 62.00 61.97 62.03 61.90
MSLP
1013.48 1013.46 1013.42 1013.46 1013.50 1013.61 1013.68 1013.87 1013.90 1013.93 1013.99 1014.00 1013.90 1013.88 1014.02 1014.03 1014.24 1014.35 1014.18 1014.22 1014.11 1014.20 1014.15 1014.09 1013.96 1013.89 1013.85 1013.76 1013.57 1013.57 1013.56 1013.41 1013.24
1013.23 1013.27 1013.29 1013.27 1013.30 1013.40 1013.47 1013.56 1013.68 1013.75 1013.80 1013.79 1013.75 1013.74 1013.80 1013.94 1014.11 1014.26 1014.08 1014.08 1014.03 1014.16 1014.17 1014.08 1013.98 1013.97 1013.91 1013.82 1013.71 1013.56 1013.67 1013.47 1013.37
1013.08 1013.08 1013.03 1013.01 1013.01 1013.04 1013.16 1013.20 1013.27 1013.28 1013.37 1013.39 1013.44 1013.46 1013.64 1013.86 1014.07 1014.19 1014.05 1013.80 1013.85 1013.97 1014.09 1014.06 1014.06 1013.94 1013.92 1013.88 1013.78 1013.52 1013.71 1013.65 1013.42
1012.93 1012.80 1012.84 1012.76 1012.71 1012.71 1012.79 1012.83 1012.83 1012.84 1012.94 1013.05 1013.08 1013.10 1013.25 1013.79 1013.82 1013.91 1013.97 1013.68 1013.67 1013.74 1013.82 1013.95 1014.01 1013.98 1013.95 1013.92 1013.72 1013.64 1013.60 1013.51 1013.40
1012.81 1012.67 1012.54 1012.46 1012.43 1012.40 1012.34 1012.39 1012.40 1012.44 1012.53 1012.60 1012.67 1012.73 1012.86 1013.35 1013.50 1013.63 1013.70 1013.49 1013.48 1013.53 1013.63 1013.63 1013.84 1013.87 1013.91 1013.92 1013.74 1013.62 1013.50 1013.46 1013.36
1012.68 1012.40 1012.35 1012.28 1012.13 1012.01 1011.96 1011.98 1011.96 1011.99 1012.08 1012.14 1012.23 1012.31 1012.49 1012.86 1013.09 1013.21 1013.30 1013.21 1013.20 1013.23 1013.39 1013.43 1013.50 1013.72 1013.86 1013.90 1013.76 1013.58 1013.47 1013.36 1013.37
1012.78 1012.62 1012.36 1012.08 1011.64 1011.51 1011.52 1011.51 1011.48 1011.56 1011.70 1011.78 1011.84 1012.00 1012.12 1012.37 1012.69 1012.74 1012.79 1012.86 1012.89 1012.91 1013.13 1013.25 1013.27 1013.42 1013.73 1013.86 1013.70 1013.52 1013.28 1013.29 1013.34
1013.14 1012.78 1012.47 1012.20 1011.77 1011.37 1010.98 1010.93 1010.84 1010.95 1011.12 1011.28 1011.48 1011.56 1011.65 1011.73 1012.03 1012.11 1012.12 1012.32 1012.49 1012.55 1012.89 1013.07 1013.09 1013.19 1013.47 1013.67 1013.71 1013.53 1013.26 1013.22 1013.28
1013.91 1013.36 1012.89 1012.31 1011.84 1011.55 1011.19 1010.85 1010.48 1010.30 1010.35 1010.54 1010.86 1011.12 1011.27 1011.39 1011.38 1011.57 1011.48 1011.73 1011.93 1012.03 1012.42 1012.80 1012.87 1012.88 1013.16 1013.54 1013.63 1013.54 1013.41 1013.19 1013.09
1014.48 1014.00 1013.37 1012.81 1012.27 1011.77 1011.30 1010.97 1010.68 1010.47 1010.23 1010.14 1010.30 1010.48 1010.63 1010.84 1010.82 1010.96 1011.06 1011.06 1011.20 1011.58 1011.90 1012.37 1012.55 1012.64 1012.95 1013.28 1013.44 1013.53 1013.45 1013.26 1013.08
1014.78 1014.55 1013.95 1013.25 1012.75 1012.10 1011.37 1010.92 1010.58 1010.35 1010.36 1010.26 1010.04 1009.96 1009.88 1010.06 1010.40 1010.41 1010.49 1010.58 1010.88 1010.96 1011.34 1011.74 1012.15 1012.36 1012.66 1012.93 1013.11 1013.36 1013.33 1013.17 1013.09
1015.06 1014.61 1014.21 1013.63 1012.92 1012.29 1011.58 1010.87 1010.45 1010.16 1010.02 1009.88 1009.67 1009.36 1009.19 1009.38 1009.69 1009.77 1009.90 1010.05 1010.32 1010.41 1010.64 1011.02 1011.63 1011.95 1012.21 1012.54 1012.73 1013.00 1013.18 1013.14 1013.05
1015.22 1014.86 1014.37 1013.71 1013.23 1012.52 1011.90 1011.31 1010.61 1010.16 1009.87 1009.56 1009.29 1009.14 1008.90 1008.64 1009.02 1009.17 1009.47 1009.60 1009.83 1010.06 1010.26 1010.56 1011.00 1011.38 1011.69 1012.16 1012.44 1012.66 1012.88 1013.04 1012.94
1015.41 1014.83 1014.29 1013.86 1013.33 1012.76 1012.16 1011.36 1011.02 1010.44 1009.86 1009.43 1008.81 1008.66 1008.53 1008.39 1008.43 1008.63 1008.96 1009.17 1009.39 1009.68 1009.68 1009.93 1010.55 1010.92 1011.12 1011.58 1012.01 1012.34 1012.52 1012.68 1012.69
1015.00 1014.57 1014.23 1013.84 1013.39 1012.85 1012.15 1011.57 1010.83 1010.34 1009.77 1009.11 1008.51 1008.15 1008.03 1008.07 1008.26 1008.11 1008.19 1008.54 1009.16 1009.33 1009.41 1009.65 1010.21 1010.41 1010.64 1010.95 1011.34 1011.84 1012.09 1012.14 1012.37
1014.81 1014.55 1014.20 1013.72 1013.36 1012.85 1012.37 1011.67 1010.91 1009.98 1009.54 1009.14 1008.15 1007.77 1007.54 1007.61 1007.60 1007.82 1007.94 1007.89 1008.29 1009.24 1009.16 1009.29 1009.79 1010.03 1010.20 1010.59 1010.86 1011.12 1011.51 1011.81 1011.97
1014.32 1014.28 1013.95 1013.47 1013.04 1012.50 1012.23 1011.72 1011.07 1010.04 1009.41 1009.11 1008.54 1007.91 1007.65 1007.34 1007.42 1007.47 1007.55 1007.76 1008.05 1008.66 1008.82 1009.06 1009.23 1009.55 1009.88 1010.22 1010.50 1010.85 1011.28 1011.61 1011.70
1013.71 1013.54 1013.37 1013.05 1012.78 1012.40 1011.95 1011.66 1011.03 1010.10 1009.18 1008.81 1008.64 1007.76 1007.38 1007.25 1007.53 1007.67 1007.70 1007.54 1007.91 1008.03 1008.30 1008.64 1008.79 1009.32 1009.75 1009.88 1010.30 1010.68 1011.08 1011.38 1011.61
1012.97 1012.68 1012.55 1012.35 1012.05 1012.05 1011.45 1011.20 1010.93 1010.44 1009.50 1008.76 1007.92 1007.70 1007.35 1007.22 1007.65 1007.99 1007.91 1007.91 1007.78 1007.69 1007.87 1008.32 1008.48 1009.00 1009.74 1009.79 1010.14 1010.73 1010.90 1011.26 1011.39
1012.31 1011.93 1011.72 1011.59 1011.42 1011.12 1011.09 1010.75 1010.54 1010.15 1009.54 1008.89 1008.29 1007.37 1006.94 1006.80 1007.14 1007.71 1008.03 1007.89 1008.16 1008.27 1007.90 1007.64 1008.38 1008.75 1009.31 1009.92 1010.30 1010.78 1011.11 1011.10 1011.30
Wind_Speed
8 8 8 10 9 9 9 8 8 8 7 5 4 3 3 5 6 4 7 4 9 8 8 7 7 8 10 8 9 10 10 10 10
11 11 11 10 11 11 10 10 10 9 9 8 7 5 0 2 5 4 5 5 7 7 8 7 6 8 7 9 9 9 10 10 10
13 13 12 12 12 12 12 13 13 12 11 10 9 8 3 4 5 5 4 9 9 8 8 7 6 7 8 9 8 9 10 9 9
14 14 15 14 14 15 16 15 15 14 14 13 12 11 7 5 4 7 4 11 11 10 9 7 7 5 6 7 7 7 8 8 9
17 16 15 17 17 18 18 17 17 16 15 15 14 13 10 5 5 4 4 13 13 12 10 9 8 5 6 6 5 6 8 8 8
9 12 15 18 18 19 20 19 18 17 16 16 15 14 4 5 4 4 12 15 14 14 12 11 10 8 6 5 5 6 8 7 9
8 8 12 16 17 19 20 20 20 18 7 6 12 6 6 4 5 5 16 18 16 14 14 13 11 10 7 6 4 5 7 5 7
4 3 4 4 10 6 10 13 11 10 8 7 7 7 6 5 5 8 19 19 18 16 15 14 13 11 9 7 5 3 6 6 6
9 6 7 6 5 7 5 4 9 10 11 10 9 9 7 6 5 8 20 22 21 19 17 16 14 12 10 8 6 5 4 6 7
6 7 6 7 8 7 5 5 6 6 6 8 10 11 10 7 5 5 19 23 23 21 19 17 15 13 12 10 8 6 5 4 4
7 7 6 6 7 7 8 6 6 5 6 9 9 11 9 8 7 5 9 23 21 22 21 19 17 16 14 12 10 9 7 5 4
7 6 7 7 6 8 8 8 6 7 6 9 9 9 8 6 9 8 7 13 22 22 22 22 19 18 16 14 13 11 8 6 5
9 7 7 7 7 5 6 7 7 6 6 6 6 6 7 9 11 9 9 8 10 16 21 21 22 20 18 16 14 12 10 8 6
7 7 8 8 7 6 6 7 6 8 6 6 6 5 6 8 7 10 10 10 9 8 18 21 19 20 20 18 15 13 12 9 7
6 7 6 7 8 8 6 8 8 7 8 8 8 4 5 5 7 10 8 7 6 7 9 10 10 19 20 19 18 15 13 10 9
5 4 5 6 7 9 9 8 10 7 4 7 4 5 3 4 5 6 8 10 10 11 9 7 6 9 19 19 18 17 13 9 8
6 5 5 6 6 8 9 8 8 7 5 4 5 4 2 2 2 4 7 12 10 11 11 10 10 8 5 7 14 12 11 10 7
7 7 6 6 5 5 7 8 9 9 6 7 7 3 4 3 1 1 1 7 9 11 11 10 9 8 6 8 9 10 9 8 6
8 8 7 6 4 5 5 8 7 8 10 8 6 9 4 3 2 0 1 2 1 9 9 11 10 9 7 9 10 11 9 7 6
11 9 8 7 5 5 6 9 7 7 8 7 7 6 5 5 3 2 1 1 4 4 4 9 10 10 8 7 9 11 9 8 6
Wind_Direction
236 238 248 210 211 213 210 210 209 201 205 219 239 260 80 82 152 172 145 144 126 112 102 94 96 88 81 59 70 72 65 53 40
243 239 239 245 222 220 220 217 217 216 215 224 235 245 12 99 161 184 149 152 128 127 118 115 102 94 82 78 58 66 59 47 41
258 249 242 240 243 229 225 225 223 220 222 223 235 238 234 103 169 198 183 162 146 141 128 126 115 104 96 85 76 56 65 49 36
274 267 258 250 247 240 230 228 227 224 223 225 228 235 229 154 197 187 208 171 160 154 145 137 132 119 106 94 89 67 66 53 39
285 274 263 256 249 244 236 231 229 227 225 224 228 226 227 174 193 208 204 183 171 163 158 152 147 136 118 107 89 74 65 58 43
321 302 290 273 261 254 247 239 234 227 224 223 227 218 212 181 202 181 205 193 185 172 167 163 158 155 155 124 116 94 86 65 62
330 341 334 329 299 264 251 246 242 236 225 225 224 214 217 206 190 195 203 201 195 181 174 172 169 163 159 148 139 126 103 84 68
337 334 332 311 324 303 263 248 238 228 219 213 216 218 213 221 190 208 202 201 200 186 183 179 175 171 171 167 145 145 115 93 80
352 353 340 337 331 312 298 265 244 241 230 217 216 219 224 228 207 215 204 201 199 190 186 186 181 175 174 179 163 153 151 111 87
339 341 341 337 333 318 309 293 280 263 247 238 226 221 225 224 216 206 204 203 199 191 188 189 185 179 180 180 174 171 164 138 110
348 335 330 337 335 327 314 291 282 261 263 249 237 231 224 211 216 208 208 205 200 191 191 189 189 185 183 186 180 179 180 160 144
335 336 335 326 326 326 324 316 297 284 262 249 250 241 224 218 218 215 212 208 203 195 192 190 193 192 187 189 186 185 188 178 174
345 335 328 321 323 319 321 315 312 294 282 268 245 240 233 219 221 211 209 212 203 203 194 192 194 197 191 193 190 190 196 197 194
336 329 323 323 318 316 310 314 305 304 288 272 264 224 229 232 212 203 204 203 198 205 199 195 195 197 194 192 194 197 200 204 215
322 325 316 326 324 315 312 305 304 287 290 290 283 244 216 206 213 204 189 186 196 207 199 191 196 197 198 195 193 198 204 206 226
303 295 303 318 320 307 303 307 300 300 286 293 276 264 217 221 203 203 202 180 184 211 197 184 183 197 203 201 201 196 200 204 220
286 288 279 288 306 313 310 307 304 288 281 273 280 270 260 185 192 205 205 209 196 200 204 193 184 183 175 183 201 190 192 202 201
266 263 251 268 277 285 301 303 291 297 294 258 258 273 236 181 122 140 19 211 205 203 196 191 190 168 160 155 146 153 177 195 194
264 262 257 251 247 270 284 296 310 309 307 315 249 249 234 245 176 204 77 24 4 206 190 191 181 168 164 152 147 159 162 172 185
269 261 262 255 238 242 261 280 275 275 278 282 294 267 245 222 195 185 172 60 35 15 299 175 181 167 148 149 146 149 152 152 149